Theta_e
329 329 327 328 328 328 328 327 330 332 335 339 339 337 340 343 347 348 347 348 348 349 350 348 347 349 349 349 352 353 353 351 350 351 351 351 351 353 354 349 343 342 343 344 345 344 344 344 343 344 344 344 344 345 345 342 338 337 335 333 333 333 333
327 324 326 326 324 328 331 327 329 330 328 333 340 343 345 347 349 348 345 348 350 349 352 350 349 351 348 346 349 352 352 351 349 350 351 351 350 351 353 349 345 344 343 344 345 344 345 345 343 343 343 344 344 344 345 343 342 339 335 333 333 332 333
325 324 326 326 321 323 328 327 328 328 327 328 331 339 346 346 347 348 346 346 348 349 350 350 351 352 347 344 347 350 352 351 350 350 351 350 350 350 353 350 348 347 344 343 345 345 345 344 343 343 344 344 344 345 345 344 343 341 337 334 332 332 332
323 328 330 326 323 322 324 328 328 327 332 331 326 332 344 346 346 348 346 345 349 351 350 350 350 349 346 345 345 346 348 348 350 350 350 351 350 350 352 351 350 349 347 345 344 345 345 345 345 345 344 345 345 345 346 345 345 345 344 341 335 332 332
323 326 330 329 326 324 326 328 325 324 327 328 323 326 337 344 346 346 345 346 349 348 347 349 349 347 344 344 344 345 346 347 348 350 350 351 351 350 352 351 350 350 350 348 346 345 345 345 346 346 345 346 346 346 347 346 346 347 346 346 341 334 332
320 322 327 329 328 328 329 328 326 326 325 324 323 323 332 343 345 343 344 347 347 345 344 346 346 343 342 342 344 344 344 344 346 348 348 350 350 351 351 351 351 350 350 351 349 347 347 346 346 346 346 347 346 346 347 346 347 347 347 347 345 337 332
322 321 322 324 324 327 329 327 327 328 328 328 326 327 336 343 342 342 345 347 346 344 343 345 344 341 341 342 342 342 341 342 344 346 347 348 348 350 351 352 351 350 350 351 352 350 349 348 347 347 347 347 347 347 346 346 346 347 347 348 347 341 334
330 325 327 329 325 325 325 323 324 326 328 332 332 336 345 347 344 347 349 348 347 344 342 342 341 340 340 339 340 340 340 341 342 344 345 346 346 348 350 352 352 351 350 351 352 351 351 351 350 348 347 346 346 347 347 346 347 347 348 348 348 346 341
323 323 327 331 330 329 325 322 324 331 336 339 338 340 349 347 343 346 348 347 347 344 342 341 339 338 338 337 338 339 340 340 341 341 342 344 344 345 348 351 352 352 352 351 352 352 351 352 352 351 349 348 347 346 347 347 346 347 348 348 350 349 346
323 325 326 328 331 329 324 322 325 333 340 342 341 341 347 347 343 344 346 346 346 343 341 341 338 337 337 336 337 338 339 340 339 339 341 341 343 344 346 349 351 352 352 352 352 353 352 352 352 352 352 352 351 350 350 349 349 349 349 350 350 350 348
328 334 335 334 332 324 320 322 325 332 339 342 342 343 347 347 345 347 346 345 346 344 342 341 338 336 336 335 336 337 338 338 338 338 339 340 341 343 344 347 349 350 350 351 351 352 352 352 352 352 352 352 353 354 354 354 353 353 353 352 352 352 351
323 331 329 325 325 320 318 322 325 332 339 342 343 341 342 343 344 348 347 344 345 345 341 340 337 337 336 335 335 337 337 337 336 336 337 339 341 342 343 344 345 346 346 346 347 349 351 352 352 352 352 351 352 353 353 354 354 355 356 355 354 354 353
319 323 319 318 321 319 321 327 330 333 338 343 345 342 342 344 344 345 344 344 344 343 340 338 336 335 336 335 336 336 336 336 336 335 335 336 337 338 339 339 341 342 343 343 343 345 348 350 352 351 352 352 351 352 351 351 351 352 353 353 354 355 354
319 320 319 319 321 320 323 329 334 339 341 342 343 342 342 346 346 343 342 343 343 340 338 337 335 335 335 335 335 336 335 335 335 334 335 334 334 335 335 337 340 341 342 342 342 343 345 347 350 351 351 351 351 351 351 351 351 350 350 351 351 352 352
320 320 322 318 320 323 323 324 329 336 341 342 341 340 341 343 343 340 341 342 341 338 335 334 335 335 335 335 334 334 334 334 334 334 333 332 333 333 333 335 337 339 340 341 341 341 342 343 346 348 347 347 347 349 349 351 351 351 351 351 351 351 351
321 318 322 320 322 324 322 323 324 325 336 342 341 341 341 340 341 340 340 342 340 336 333 333 334 334 333 333 333 333 333 333 333 333 332 332 332 333 333 334 334 337 339 340 339 340 340 340 340 342 342 342 343 344 346 347 348 350 350 350 351 352 352
323 318 322 327 330 324 322 326 323 322 336 344 340 340 340 337 339 340 341 341 338 333 332 333 333 332 332 332 332 332 332 332 333 332 330 331 331 332 333 334 333 334 336 339 340 339 338 336 335 333 333 334 338 341 342 343 344 346 347 347 348 350 351
326 324 327 331 331 325 326 329 322 321 335 343 340 340 339 337 338 338 338 336 333 332 332 333 332 331 331 332 332 332 331 332 332 332 330 330 329 330 331 332 333 333 333 335 338 339 339 337 335 332 327 326 329 333 335 337 339 341 343 344 345 346 347
323 328 334 330 325 325 329 330 325 324 331 336 338 338 336 337 337 336 334 333 332 332 332 331 331 331 331 332 332 331 329 329 332 332 330 329 328 327 328 330 331 332 331 330 332 333 333 332 331 329 326 323 323 324 326 329 333 336 338 340 340 341 342
319 325 329 327 325 328 331 331 329 332 335 336 337 338 336 335 334 332 333 332 329 330 331 330 331 331 331 331 331 329 327 327 330 331 329 328 328 327 326 326 328 329 329 328 328 327 327 325 323 323 322 320 320 320 321 322 324 329 333 336 337 337 337
323 325 325 327 329 327 329 332 327 324 332 337 338 340 336 332 331 331 331 330 329 329 329 329 329 329 329 328 328 328 326 326 328 328 326 327 327 326 326 325 325 325 325 325 325 325 324 324 323 323 321 317 315 316 318 319 320 321 324 327 330 330 331
330 330 326 327 328 325 330 338 326 318 325 332 334 338 336 331 330 330 329 329 329 328 328 328 327 328 329 328 327 327 325 324 325 325 325 325 325 324 324 324 323 323 323 322 322 321 321 320 321 321 320 316 313 313 315 317 318 319 319 320 321 322 324
331 333 329 328 329 328 332 337 326 317 324 330 333 339 338 331 329 330 329 329 328 326 326 326 326 328 328 326 325 326 325 323 323 323 323 323 323 323 323 322 321 321 320 320 319 319 318 317 318 318 317 314 311 311 312 314 315 316 317 318 319 320 321
331 335 331 327 329 328 328 330 323 317 321 329 337 344 341 332 329 330 329 328 328 326 326 326 326 327 327 325 324 325 324 321 321 322 322 321 321 321 321 320 319 319 319 319 318 316 315 314 314 314 313 311 311 311 311 312 312 313 313 315 316 317 319
329 333 329 323 326 326 323 323 321 316 317 325 336 341 337 330 329 331 329 329 328 326 326 327 328 327 325 325 325 325 322 320 321 321 320 320 320 319 319 319 318 318 318 317 315 313 312 312 312 312 311 310 310 311 311 312 313 312 312 313 314 314 314
321 332 333 325 324 324 320 319 318 316 318 322 328 330 327 326 330 331 329 329 328 327 326 327 327 325 324 325 325 323 321 320 321 320 320 320 319 319 319 319 318 317 316 315 313 311 310 310 310 311 310 310 310 310 310 311 312 312 312 314 314 312 310
321 331 333 327 326 324 321 319 318 319 322 324 323 323 322 325 330 331 329 329 328 328 327 327 325 323 323 324 324 322 321 321 320 320 320 320 319 319 320 319 318 318 316 313 312 311 310 310 309 309 310 310 310 310 309 309 310 310 311 311 312 311 310
328 333 332 328 327 325 322 320 319 321 324 322 322 322 322 324 328 329 329 329 328 329 328 326 324 322 321 322 322 321 320 320 320 320 320 320 320 320 319 318 318 316 314 312 310 310 310 310 309 309 309 309 309 309 310 310 309 309 309 309 309 309 310
324 330 332 328 324 322 323 323 320 322 322 320 322 324 323 324 327 329 329 329 328 329 328 325 323 321 321 321 320 320 321 320 320 320 320 320 320 319 318 317 316 314 312 311 310 310 311 311 311 310 309 309 310 310 310 310 309 308 308 308 308 308 308
321 324 325 323 322 322 322 322 321 320 320 321 322 324 324 325 327 328 330 330 328 328 328 326 322 320 320 320 320 320 320 320 320 320 319 319 319 318 317 316 314 313 311 310 310 310 311 311 311 311 310 310 310 310 310 309 308 308 307 307 307 307 307
326 327 324 322 322 321 319 320 321 320 320 321 321 323 324 325 327 328 330 330 328 327 328 326 323 321 320 321 320 320 320 320 319 319 319 318 318 317 316 315 314 312 311 311 311 311 310 311 311 311 311 311 310 310 309 309 308 308 307 307 307 307 306
324 324 322 321 321 319 319 320 320 320 320 320 320 321 322 322 324 326 327 328 327 326 326 326 324 321 321 321 321 320 320 320 320 319 319 318 317 316 315 314 314 313 312 311 312 311 311 311 312 311 311 310 309 309 308 308 307 307 306 307 307 306 306
321 321 321 321 322 322 320 319 319 319 320 320 320 320 320 321 322 324 324 325 326 326 325 325 324 322 321 320 320 320 320 319 319 319 318 317 317 316 315 314 314 313 313 312 312 312 311 312 312 311 310 309 308 307 306 306 306 305 305 306 306 306 306
326 326 323 322 324 325 321 320 319 318 319 320 320 320 320 320 320 321 321 322 323 323 323 323 322 321 320 319 319 319 319 318 318 317 317 317 316 315 315 314 314 313 313 313 312 311 312 312 312 311 311 310 308 306 305 305 305 304 305 305 305 305 307
327 325 321 320 323 323 320 320 320 318 318 319 319 319 319 319 319 319 319 319 319 320 320 320 320 320 319 318 318 318 318 317 317 317 317 316 316 316 315 314 314 313 313 313 312 312 312 312 312 312 311 309 307 305 306 306 306 306 306 305 306 306 306
322 321 321 321 321 320 320 320 320 319 318 318 319 319 319 318 318 318 318 318 319 318 318 317 318 318 318 317 317 317 317 317 317 317 317 316 315 315 314 314 314 314 313 313 313 312 312 311 311 311 311 308 306 305 307 308 307 308 308 308 308 308 308
322 322 321 321 321 321 321 321 320 320 319 318 319 319 319 318 318 317 317 317 318 317 318 317 317 317 317 317 317 316 316 317 317 316 316 316 315 314 314 314 314 314 313 313 312 312 312 312 311 311 311 308 306 306 307 308 308 309 309 310 310 310 311
Wind_Speed
4 8 8 5 6 5 2 3 5 5 4 7 4 1 3 4 4 2 1 1 1 1 1 3 4 6 7 8 9 12 15 19 21 19 18 17 17 14 10 14 25 32 36 39 39 39 39 37 34 31 29 26 22 19 18 20 20 20 21 22 23 23 23
3 6 9 4 1 5 5 3 5 3 3 4 4 3 3 3 3 1 1 0 1 1 0 1 1 5 6 6 5 8 13 18 20 19 18 18 19 16 12 14 20 26 33 37 38 38 38 37 34 30 27 26 22 19 18 19 20 19 19 20 22 23 23
2 4 8 4 5 3 5 5 3 3 3 1 2 3 2 2 3 1 2 3 2 2 1 1 2 5 6 6 6 4 8 14 19 20 19 18 19 18 16 16 17 21 28 33 36 37 37 37 35 30 27 26 23 21 19 19 18 17 17 18 20 22 23
1 4 4 2 2 5 4 4 2 2 3 3 3 3 3 4 4 3 1 2 3 2 1 1 3 5 6 5 6 6 4 7 15 17 17 18 19 19 19 18 17 17 21 27 32 35 36 36 36 32 29 27 25 24 22 21 20 19 17 17 18 20 22
1 1 1 5 5 2 3 3 2 1 2 2 3 2 2 4 4 3 3 1 3 2 1 1 4 6 6 6 7 8 9 8 13 15 16 17 17 20 21 21 19 16 17 22 26 29 32 35 36 34 31 29 28 27 25 24 23 22 20 18 18 20 21
2 2 3 6 8 6 5 4 3 3 3 4 4 2 2 2 4 4 4 3 2 2 1 3 6 6 6 8 10 10 11 12 11 11 15 17 16 18 20 21 21 19 17 18 20 22 25 29 32 33 33 32 30 29 27 25 25 24 21 18 18 18 20
3 5 5 3 5 5 6 4 3 4 4 4 5 3 2 2 3 2 3 2 0 0 1 1 5 6 7 10 12 12 13 14 12 12 14 15 14 14 15 16 19 21 19 17 17 17 19 21 25 28 32 33 33 31 29 27 27 27 25 21 18 18 19
3 5 5 4 4 5 6 2 2 5 3 3 5 5 4 4 3 2 3 2 2 2 2 1 8 9 9 11 14 15 15 14 14 14 14 14 12 12 15 16 16 18 20 18 18 18 16 17 19 23 27 31 33 33 31 30 29 28 27 25 22 20 21
3 4 5 6 6 3 2 2 1 5 7 8 6 3 4 3 3 4 4 2 2 2 1 4 10 10 9 11 14 15 15 15 16 17 16 17 17 16 17 19 16 15 18 18 18 19 18 16 16 18 22 27 30 32 32 31 31 30 29 27 24 22 21
3 2 1 1 2 2 2 2 3 5 9 10 6 4 5 2 3 3 4 4 4 4 5 7 8 7 8 9 13 15 15 16 18 19 19 19 20 22 22 22 19 17 18 18 17 17 18 17 16 16 18 21 24 27 30 32 32 32 32 30 26 24 22
5 6 5 4 3 2 0 1 3 4 5 7 7 5 3 4 5 2 0 6 11 9 9 9 8 7 7 8 11 13 13 14 17 20 22 20 20 22 23 22 20 18 17 17 16 15 16 17 17 17 18 18 20 23 26 29 30 30 30 30 29 27 25
2 5 2 1 4 4 2 1 2 4 5 6 7 4 5 9 7 1 3 11 15 13 12 11 9 7 7 8 11 13 13 15 17 20 22 22 21 20 20 20 18 18 18 16 14 14 16 18 18 19 19 19 19 19 20 24 28 28 27 27 28 28 27
5 4 5 5 6 5 4 5 3 4 5 7 6 3 5 8 5 5 10 13 13 12 12 11 11 11 11 13 16 16 15 16 17 20 22 22 21 20 20 21 20 20 21 20 18 16 15 17 18 17 18 17 17 16 16 17 21 24 23 21 22 23 25
8 9 7 6 8 7 7 9 7 6 7 8 8 6 5 7 7 10 15 12 8 8 10 11 14 17 18 18 18 17 16 15 15 18 21 23 22 21 21 22 22 22 23 22 20 18 16 16 17 17 15 14 14 14 14 14 15 18 20 18 16 17 20
7 9 7 7 8 10 10 10 9 8 9 10 8 8 8 10 10 12 14 12 7 5 9 14 18 22 22 18 16 17 17 16 16 18 20 23 25 24 23 23 23 23 23 23 22 20 16 14 14 13 11 10 10 9 9 12 14 16 18 18 15 14 14
4 6 7 7 6 10 10 9 9 8 5 5 5 4 5 9 13 14 13 10 6 7 13 18 19 22 21 17 17 19 18 18 20 20 21 23 25 25 24 24 24 24 25 26 25 23 20 17 14 11 7 5 6 6 7 9 11 13 15 15 15 14 13
3 6 6 4 6 8 6 4 5 4 1 4 5 2 3 10 16 13 9 8 7 11 15 15 15 18 19 19 21 22 21 21 22 23 23 24 24 24 23 23 24 24 25 26 26 24 23 21 20 17 13 11 10 8 8 8 8 10 11 11 11 12 12
2 7 6 5 6 3 2 6 5 3 2 6 8 6 4 5 6 6 6 9 11 13 14 14 14 16 19 22 24 25 25 25 25 25 25 25 24 23 22 21 22 23 23 24 23 22 21 20 19 18 17 17 16 14 12 10 7 6 6 5 4 5 6
2 5 5 6 3 3 5 7 4 2 5 10 13 10 6 3 6 11 12 11 12 15 16 19 21 22 23 25 25 25 25 26 27 27 25 24 24 23 21 20 19 19 20 21 21 20 18 16 15 15 16 16 17 17 16 15 13 11 9 7 4 2 1
2 3 4 3 2 4 5 6 5 7 8 11 13 9 8 6 6 12 12 9 12 18 22 24 26 28 27 25 24 25 25 25 28 28 25 23 23 22 20 19 18 17 16 17 18 17 16 14 13 14 13 12 13 15 16 16 16 15 13 12 9 6 4
1 2 1 1 1 3 4 3 3 3 0 3 7 5 4 6 4 11 13 10 13 20 24 26 29 30 25 17 14 21 25 26 27 27 25 24 23 22 20 18 16 15 13 13 13 12 12 11 10 10 10 10 10 11 12 14 14 14 14 14 12 9 8
2 3 2 3 3 1 4 5 4 5 2 1 5 6 2 4 5 16 17 14 16 21 24 27 29 27 17 8 7 18 25 27 27 26 25 23 22 20 19 17 15 13 10 10 9 8 7 8 7 7 6 7 7 7 8 10 10 10 12 13 12 11 9
2 4 3 1 2 3 5 6 8 9 5 6 7 7 0 4 7 17 20 18 19 22 26 27 25 17 8 3 9 21 27 27 27 27 24 22 20 18 16 15 13 11 9 7 6 4 4 4 4 4 3 4 4 3 4 5 5 6 8 9 10 10 9
2 4 2 1 3 3 4 5 8 9 4 6 8 4 3 8 13 16 20 23 23 24 27 25 16 9 8 10 17 26 30 28 26 26 24 22 20 17 15 13 11 10 8 5 4 2 1 1 2 1 1 1 1 1 1 1 1 2 3 4 5 6 6
2 4 2 1 2 3 4 6 9 8 4 5 5 2 6 13 20 19 21 28 29 29 30 23 12 10 18 26 30 31 31 28 26 25 23 21 19 16 14 12 9 8 6 4 2 1 1 1 1 0 1 1 2 2 2 2 2 2 1 2 2 2 2
2 3 3 1 3 3 3 6 9 6 3 1 3 4 6 18 27 23 23 30 34 34 31 23 16 17 26 34 36 34 31 29 27 25 23 21 18 16 14 11 8 6 4 1 0 2 2 1 1 2 2 2 3 3 4 4 4 4 4 4 4 4 4
1 3 3 2 2 4 5 6 6 3 2 4 7 6 7 17 27 27 27 30 32 33 27 20 22 29 35 38 38 35 32 29 27 25 23 20 17 15 12 10 7 4 1 1 2 3 4 3 3 3 3 3 4 4 5 6 6 6 6 6 6 6 7
2 2 0 2 4 5 6 3 1 3 2 4 8 11 11 15 23 27 27 25 27 30 27 24 30 37 39 39 38 35 32 28 26 25 21 18 16 13 10 8 5 2 1 2 2 3 3 4 4 4 4 5 5 5 5 6 6 7 7 8 8 8 8
2 3 4 3 2 4 2 5 8 8 7 6 8 12 15 18 21 25 26 25 27 29 28 30 35 39 39 38 37 34 31 28 25 23 20 17 14 12 9 6 3 1 0 1 1 1 2 3 4 5 6 6 7 7 7 7 7 7 8 8 8 9 9
0 0 1 2 4 6 8 12 14 13 12 10 9 11 14 18 21 24 27 28 29 29 29 32 37 39 39 38 35 31 28 26 23 21 18 16 13 11 8 5 2 1 1 1 1 1 2 3 5 7 8 8 9 10 10 10 9 9 9 9 9 9 9
2 1 3 4 5 7 8 11 14 14 14 12 10 10 12 14 18 22 25 27 29 30 31 32 36 39 38 36 33 30 27 24 22 19 17 14 11 9 6 4 3 3 4 3 3 3 4 5 6 8 9 10 11 12 13 13 13 12 11 11 10 10 9
1 2 3 3 5 6 8 9 10 12 13 12 10 11 11 12 14 18 22 25 28 29 29 30 33 36 36 34 32 29 25 23 20 17 14 12 9 7 5 4 5 6 6 4 4 5 6 6 8 9 10 11 12 14 15 15 14 13 12 11 11 11 10
1 2 2 4 5 5 6 7 7 9 12 12 11 12 12 12 13 16 18 21 23 25 27 28 30 33 32 30 28 26 23 20 18 16 13 11 8 6 6 7 8 8 6 5 6 7 7 8 9 11 12 13 13 13 14 14 14 13 12 12 11 11 11
1 2 1 4 4 2 4 6 5 5 9 13 15 15 14 14 15 15 17 19 20 20 21 23 26 28 26 24 22 21 19 18 17 16 15 13 11 10 10 11 11 8 6 6 8 8 9 10 11 13 15 16 15 13 12 12 13 13 12 12 11 12 12
3 3 4 6 6 5 6 8 6 3 5 10 15 17 18 19 19 18 18 20 20 19 20 21 21 22 22 20 19 18 18 18 18 17 16 14 13 12 13 13 11 9 7 7 8 10 10 11 13 15 17 17 16 14 12 11 11 12 12 12 11 12 12
4 6 7 7 6 6 6 7 6 4 3 5 8 10 13 17 20 21 21 20 20 20 20 21 21 20 20 21 20 19 19 19 19 17 15 13 11 11 12 12 12 10 9 9 10 11 11 12 15 16 17 18 17 15 12 11 10 10 11 11 11 11 12
4 6 7 5 4 4 3 2 2 2 3 4 4 4 6 9 12 16 18 20 21 20 20 20 21 21 21 20 20 20 19 19 18 17 14 13 13 13 14 13 13 12 11 11 11 11 12 14 16 17 18 18 17 15 13 12 10 9 9 10 11 11 11
Wind_Direction
194 177 174 154 145 155 141 132 157 194 174 133 126 97 71 90 98 60 41 114 15 308 271 338 38 74 68 76 110 134 151 170 182 186 187 191 192 190 187 182 184 190 195 198 199 201 203 204 206 208 210 211 212 217 219 214 211 211 213 215 216 217 216
256 155 129 90 108 138 121 157 194 186 92 97 108 96 48 61 94 75 358 71 225 215 126 336 61 90 68 53 85 131 148 160 176 187 191 195 197 194 183 175 180 188 193 197 199 201 204 206 208 210 212 213 213 217 219 212 209 210 212 216 217 217 215
268 74 93 61 358 47 119 153 161 117 115 117 93 122 137 100 105 122 1 347 274 209 152 239 179 104 79 42 49 104 153 160 171 184 190 195 201 200 189 176 176 184 191 196 199 202 205 207 210 213 214 215 214 217 220 214 210 211 212 216 218 218 217
249 32 69 144 326 6 53 83 57 58 132 149 138 140 145 126 131 154 120 321 270 222 187 208 164 113 98 70 55 49 52 139 162 173 176 184 194 197 195 186 177 176 183 192 199 204 207 209 210 213 215 216 216 217 219 219 217 216 216 218 219 219 218
98 135 169 173 170 140 75 60 51 58 93 132 122 78 77 117 135 146 134 212 263 282 341 128 126 114 109 100 86 60 47 96 147 160 163 175 186 190 195 194 186 179 176 184 195 202 208 211 212 214 217 218 219 220 220 222 221 220 220 221 221 220 218
115 235 258 185 172 162 140 132 158 159 135 122 101 53 335 91 120 151 151 172 253 330 25 95 107 112 117 106 94 75 60 79 110 130 147 165 178 184 191 194 193 191 181 177 186 194 203 210 213 215 218 219 221 222 222 224 224 223 223 225 225 221 218
188 267 281 193 162 135 119 123 161 149 128 119 123 163 217 83 87 103 105 112 143 328 315 66 109 121 121 107 96 89 82 84 89 96 116 139 156 169 179 184 191 195 189 180 179 182 191 202 208 213 218 220 223 224 224 224 226 226 224 225 227 225 221
309 303 315 356 27 80 89 52 120 130 124 124 135 155 148 120 136 126 81 82 164 188 269 130 129 128 114 106 104 101 96 91 89 90 100 112 120 138 155 159 168 185 191 189 186 183 183 189 198 207 214 219 222 223 223 224 227 228 226 225 226 226 225
6 348 353 356 350 25 79 342 29 109 110 108 109 101 84 102 186 160 122 140 157 150 160 120 127 124 104 103 108 107 103 96 89 87 94 103 103 109 134 150 157 171 184 190 192 191 188 186 189 196 205 213 218 221 223 224 226 227 226 225 224 224 225
151 169 225 256 294 325 338 352 29 95 116 118 120 105 86 119 185 141 122 144 128 124 137 126 122 117 104 103 107 107 104 100 95 93 95 103 104 102 118 144 159 168 174 184 190 191 190 187 184 185 192 202 210 216 219 221 225 227 226 226 225 224 224
166 187 225 226 159 112 331 23 54 98 112 107 109 112 131 162 142 81 276 152 137 143 153 140 131 127 118 113 113 113 110 102 97 97 99 103 105 103 111 129 144 149 153 165 178 185 191 193 190 190 193 198 207 215 217 217 221 224 225 225 226 225 225
194 194 257 348 105 112 131 100 105 123 114 107 109 125 166 151 129 79 211 154 142 153 159 146 141 136 125 127 127 122 117 112 104 99 98 99 103 105 107 112 120 125 123 125 137 158 181 194 198 200 202 204 209 213 216 217 218 221 223 222 223 225 226
16 27 15 40 83 88 57 44 67 110 120 124 117 111 146 143 137 170 167 155 147 153 153 147 148 148 142 142 139 127 117 115 112 105 99 97 99 100 98 97 100 104 105 104 105 118 147 170 181 191 198 204 208 210 213 213 212 218 225 227 226 227 228
20 16 15 42 70 77 58 38 38 67 92 104 102 95 93 87 95 129 138 134 125 138 149 147 147 145 140 139 136 125 117 114 111 108 105 102 102 100 95 94 96 98 100 101 102 107 122 141 154 164 170 177 186 195 200 203 203 210 220 225 227 227 227
6 1 13 31 58 78 71 46 32 47 72 81 86 101 99 86 95 114 119 116 111 132 139 133 135 138 136 137 134 125 121 120 114 108 104 104 106 106 101 99 100 104 106 105 104 105 110 124 143 152 148 149 159 162 165 181 197 207 212 214 215 219 222
343 339 360 4 33 60 54 35 16 16 52 88 91 119 134 128 126 123 122 132 152 157 137 130 135 140 138 138 135 129 128 127 123 114 106 106 108 107 106 104 104 106 109 110 109 107 108 112 121 128 126 131 148 145 136 150 169 180 185 187 189 195 205
311 319 340 355 31 44 25 343 340 346 45 117 99 71 128 140 138 140 153 161 153 146 140 137 142 144 142 143 142 138 135 131 126 119 111 109 109 108 108 107 105 105 106 109 111 110 109 106 101 100 100 98 103 116 124 130 146 156 156 153 154 159 173
286 307 333 25 43 54 257 270 277 254 171 115 103 85 83 126 123 110 123 131 132 140 144 143 145 145 144 146 147 146 144 140 133 124 117 114 113 112 111 109 107 106 104 105 108 109 108 103 96 93 93 90 90 95 99 100 109 127 134 138 134 123 143
302 313 14 53 43 246 258 294 305 165 120 98 90 67 35 45 88 94 103 119 134 138 139 139 140 139 141 146 149 149 148 146 140 130 123 121 119 117 115 113 110 109 108 106 106 105 104 99 95 93 92 92 92 91 90 89 88 86 89 98 107 98 135
325 356 46 89 230 265 305 343 41 89 96 98 92 59 9 9 93 113 113 117 127 128 131 136 136 137 139 142 147 150 147 145 143 136 129 128 127 123 119 115 113 111 110 108 104 103 103 98 90 85 83 84 88 90 89 87 86 86 89 94 99 100 99
87 61 50 354 341 330 325 343 53 65 66 136 114 97 1 351 81 124 119 116 125 127 130 133 134 135 132 125 137 150 146 141 140 136 132 133 132 128 124 119 115 111 107 105 102 101 102 96 83 73 66 61 67 78 85 87 89 93 97 100 104 104 100
87 99 76 18 30 299 259 258 299 341 336 147 99 98 42 341 122 137 131 128 135 133 132 135 135 133 127 112 149 156 147 141 139 137 135 136 134 132 130 125 120 118 112 106 104 98 93 90 83 72 55 42 45 59 74 83 89 95 100 103 105 107 105
73 104 105 124 181 232 252 260 308 350 49 111 88 80 85 258 174 149 137 133 138 137 137 141 140 134 124 137 168 160 150 145 144 142 140 139 138 137 135 131 127 126 123 116 109 98 86 88 88 78 47 25 29 43 62 73 80 89 99 104 104 104 106
98 108 103 198 209 258 280 281 317 345 38 97 83 76 228 210 189 168 146 139 140 139 141 145 144 145 153 159 163 160 154 149 149 149 147 146 146 144 143 142 139 134 134 134 131 119 88 75 75 59 2 354 350 343 45 78 88 87 100 107 105 106 113
80 102 110 240 250 256 271 306 336 353 24 67 89 199 211 178 177 176 158 149 148 149 154 158 160 165 161 156 156 158 156 152 152 152 150 149 149 150 151 152 150 148 152 156 156 148 35 51 40 316 278 281 275 273 277 263 244 233 199 179 166 163 167
48 102 111 59 286 271 278 320 343 15 62 135 194 209 173 163 170 174 167 162 159 159 164 166 161 158 156 153 155 160 160 157 155 155 155 154 153 154 154 156 161 165 166 170 305 312 309 280 258 264 261 266 272 275 278 271 262 259 249 231 228 237 244
76 60 58 81 222 275 322 337 344 29 114 192 179 150 144 166 172 174 174 173 169 166 165 160 150 150 152 155 160 163 163 161 159 161 162 160 158 159 158 161 168 175 196 297 302 299 296 293 294 288 273 269 268 268 271 272 274 278 277 267 259 254 254
109 97 117 192 218 284 318 329 190 161 146 165 159 149 151 166 173 177 178 177 175 175 169 157 152 152 154 159 163 163 163 164 164 164 166 166 164 165 164 162 164 173 276 295 296 298 300 306 307 302 293 286 279 274 274 276 280 284 285 282 278 272 267
162 176 216 244 309 349 34 121 132 132 131 143 163 163 159 161 172 181 181 175 174 177 171 159 157 158 159 162 165 166 165 167 167 167 168 169 169 168 166 159 147 126 331 299 296 294 305 311 306 301 298 296 294 292 289 288 289 287 283 280 279 278 278
229 78 343 1 40 57 91 115 123 126 130 139 156 162 160 164 173 181 182 177 174 175 172 166 162 163 165 165 166 169 168 168 169 170 168 169 170 170 168 163 159 268 296 313 322 324 316 303 299 299 298 297 299 298 296 295 296 294 292 291 288 284 283
79 53 333 1 42 50 69 101 120 125 124 128 138 144 149 161 171 177 180 179 176 175 177 174 169 167 168 168 168 171 172 171 172 172 171 171 171 175 184 198 232 269 284 293 311 326 320 303 298 300 301 303 303 300 298 298 299 298 298 297 294 291 290
99 253 300 18 68 61 65 94 118 124 123 125 129 128 133 146 163 173 178 179 178 177 178 179 173 169 170 172 172 173 175 176 176 178 180 182 185 195 216 243 266 278 283 291 312 322 316 306 305 307 309 310 306 300 299 299 299 300 299 295 293 293 295
38 322 3 83 92 62 51 78 113 131 136 140 137 135 139 145 154 163 170 176 181 181 180 181 177 171 171 175 176 175 177 181 184 188 194 201 212 231 258 276 279 278 278 293 317 323 314 309 312 315 318 317 311 305 301 297 295 295 294 292 292 292 293
262 253 198 134 134 95 44 60 84 134 153 156 155 154 156 158 161 165 169 172 179 184 185 185 180 174 173 178 182 184 188 195 201 206 211 219 228 242 258 266 265 261 266 291 310 315 311 310 314 319 323 322 317 311 305 297 294 292 289 290 292 293 293
193 196 151 129 124 115 84 70 71 100 159 165 166 167 169 172 174 176 179 180 182 186 191 194 194 191 188 190 195 200 203 209 215 217 219 224 230 238 249 253 251 251 263 287 301 304 306 309 313 318 322 324 321 318 312 304 300 296 293 292 293 293 293
120 121 125 121 118 117 101 84 79 83 112 150 161 166 174 179 180 181 185 189 193 196 198 200 204 210 210 206 208 211 211 211 212 214 217 223 229 235 241 244 247 254 265 280 290 295 301 307 312 315 319 322 322 320 316 312 307 302 298 296 295 294 293
96 124 125 115 122 140 134 114 89 92 126 153 155 154 170 180 183 186 189 191 193 200 206 206 205 209 212 212 211 211 212 213 214 215 217 220 223 230 236 240 245 250 261 272 280 290 300 306 310 314 318 319 318 314 312 314 312 305 298 295 294 293 291